Regional Weather Roundup
Issued by NWS

Home | Current Version | Previous Version | Graphics & Text | Print | Product List | Glossary On
Versions: 1 2 3 4 5 6 7 8 9 10 11 12 13 14 15 16 17 18 19 20 21 22 23 24 25 26 27 28 29 30 31 32 33 34 35 36 37 38 39 40 41 42 43 44 45 46 47 48 49 50
970
ASUS44 KLIX 240505
RWRLA
LOUISIANA WEATHER ROUNDUP
NATIONAL WEATHER SERVICE NEW ORLEANS LA
1200 AM CDT THU JUL 24 2014

NOTE: "FAIR" INDICATES FEW OR NO CLOUDS BELOW 12,000 FEET WITH NO
      SIGNIFICANT WEATHER AND/OR OBSTRUCTIONS TO VISIBILITY.
      SKY/WX - SKY CONDITION AND SIGNIFICANT WEATHER.
      TMP - AIR TEMPERATURE.    DP   - DEWPOINT TEMPERATURE.
      RH  - RELATIVE HUMIDITY.  PRES - PRESSURE.
      HX  - HEAT INDEX.         WCI  - WIND CHILL INDEX.

*  THESE STATIONS ARE NOT NWS OR FAA STATIONS AND ARE NOT UNDER
   NWS QUALITY CONTROL.

LAZ040-048-061>063-065-066-069-240600-
SOUTHEAST LOUISIANA

CITY           SKY/WX    TMP DP  RH WIND       PRES   REMARKS
N.O. AUDUBON     N/A     79  73  82 MISG        N/A
N.O. INTL ARPT MOCLDY    77  73  87 SE5       29.99F
N.O. LAKEFRONT PTCLDY    78  73  84 SE5       30.00F
N.O. DOWNTOWN* FAIR      81  70  69 S3        30.00F
SLIDELL        CLEAR     75  71  87 CALM      29.99F
BATON ROUGE    PTCLDY    76  73  91 CALM      29.98F
BOOTHVILLE       N/A     79  73  82 S6        30.01F
BELLE CHASSE   PTCLDY    74  71  91 CALM      29.99F
BOGALUSA*      FAIR      76  72  87 S3        30.01F
GALLIANO*      NOT AVBL
NEW ROADS*     MOCLDY    77  74  91 W6        30.00S
GONZALES*      FAIR      75  75 100 CALM      29.99F
HAMMOND*       CLEAR     75  72  88 CALM      30.00F
HOUMA*         PTCLDY    74  71  91 CALM      30.00F
PORT FOURCHON* MOCLDY    81  73  78 CALM      30.02S

$$

LAZ041-044-053-054-240600-
SOUTHWEST LOUISIANA

CITY           SKY/WX    TMP DP  RH WIND       PRES   REMARKS
LAKE CHARLES   LGT RAIN  76  71  85 NE14      30.00F
LAFAYETTE      PTCLDY    77  74  90 CALM      29.99F
PATTERSON      PTCLDY    75  73  94 CALM      30.02F
SALT POINT       N/A     79  75  87 CALM      29.98F
NEW IBERIA     CLEAR     77  75  93 CALM      29.99F FOG
CHENAULT AIRPK CLOUDY    75  70  85 N6        30.02F

$$

LAZ027-028-240600-
CENTRAL LOUISIANA

CITY           SKY/WX    TMP DP  RH WIND       PRES   REMARKS
FORT POLK      CLOUDY    73  71  93 CALM      29.99F
ALEXANDRIA INT CLOUDY    75  71  87 CALM      29.98F
ALEXANDRIA     CLOUDY    74  71  91 CALM      29.99F

$$

LAZ001-002-240600-
NORTHWEST LOUISIANA

CITY           SKY/WX    TMP DP  RH WIND       PRES   REMARKS
SHREVEPORT     MOCLDY    71  68  90 CALM      29.96F
BARKSDALE AFB  MOCLDY    70  69  98 E2        29.97F
DTN SHREVEPORT NOT AVBL

$$

LAZ014-016-240600-
NORTHEAST LOUISIANA

CITY           SKY/WX    TMP DP  RH WIND       PRES   REMARKS
MONROE         CLOUDY    73  67  81 CALM      29.96F
TALLULAH       PTCLDY    74  70  87 N5        29.99S

$$




USA.gov is the U.S. government's official web portal to all federal, state and local government web resources and services.